CW7104 Weather Reports


time (UTC)temp
F
wind
direction
speed
knots
gust
knots
rain 1hr
in
rain 24hr
in
rain mn
in
humidity
%
barometer
mb
20260504202404 81 182 1.7 10.4 0.00 0.00 0.00 35 1007.5
20260504201904 81 229 2.6 19.1 0.00 0.00 0.00 34 1007.5
20260504200904 82 270 1.7 10.4 0.00 0.00 0.00 36 1007.6
20260504200404 81 247 2.6 13.9 0.00 0.00 0.00 38 1007.6
20260504195404 80 247 0.9 8.7 0.00 0.00 0.00 39 1007.6
20260504194904 80 322 2.6 10.4 0.00 0.00 0.00 40 1007.6
20260504194405 79 163 4.3 13.0 0.00 0.00 0.00 39 1007.6
20260504193904 79 187 1.7 10.4 0.00 0.00 0.00 38 1007.6
20260504192904 81 214 1.7 12.2 0.00 0.00 0.00 37 1007.4
20260504191905 82 162 1.7 6.1 0.00 0.00 0.00 37 1007.3
20260504191404 81 228 2.6 12.2 0.00 0.00 0.00 37 1007.5
20260504190404 81 290 0.9 7.0 0.00 0.00 0.00 38 1007.7
20260504185904 80 273 2.6 13.9 0.00 0.00 0.00 36 1007.7
20260504185405 80 268 4.3 15.6 0.00 0.00 0.00 36 1007.8
20260504184904 80 201 1.7 10.4 0.00 0.00 0.00 38 1007.8
20260504184404 79 195 2.6 13.9 0.00 0.00 0.00 39 1007.9
20260504183904 79 192 4.3 11.3 0.00 0.00 0.00 39 1007.9
20260504183404 79 314 0.9 13.0 0.00 0.00 0.00 38 1008.0
20260504182905 79 279 0.9 7.0 0.00 0.00 0.00 39 1008.1
20260504182405 79 183 4.3 17.4 0.00 0.00 0.00 38 1008.2
20260504181405 79 213 0.9 10.4 0.00 0.00 0.00 38 1008.3
20260504180905 79 226 5.2 13.9 0.00 0.00 0.00 37 1008.4
20260504180404 79 333 2.6 18.2 0.00 0.00 0.00 37 1008.4
20260504175904 79 293 2.6 10.4 0.00 0.00 0.00 38 1008.5
20260504174904 79 278 0.9 1.7 0.00 0.00 0.00 40 1008.5
20260504173404 78 266 2.6 8.7 0.00 0.00 0.00 42 1008.7
20260504172904 78 204 0.9 13.9 0.00 0.00 0.00 44 1008.8
20260504172405 78 172 0.9 13.9 0.00 0.00 0.00 43 1008.8
20260504171904 78 206 0.9 7.8 0.00 0.00 0.00 44 1008.9
20260504171405 77 257 3.5 17.4 0.00 0.00 0.00 42 1009.1
20260504170904 78 280 3.5 13.0 0.00 0.00 0.00 42 1009.2
20260504170404 78 223 2.6 12.2 0.00 0.00 0.00 43 1009.2
20260504160404 75 140 3.5 11.3 0.00 0.00 0.00 50 1009.8
20260504150904 71 195 1.7 7.0 0.00 0.00 0.00 54 1010.1
20260504150404 71 319 0.0 8.7 0.00 0.00 0.00 53 1010.1
20260504140904 66 181 2.6 10.4 0.00 0.00 0.00 59 1010.7
20260504140404 65 181 2.6 7.0 0.00 0.00 0.00 59 1010.7
20260504130403 60 177 0.9 7.8 0.00 0.00 0.00 65 1011.6
20260504100403 56 112 0.0 0.0 0.00 0.00 0.00 69 1011.2
20260504081905 60 345 1.7 8.7 0.00 0.00 0.00 58 1011.9
20260504080906 60 161 0.0 0.0 0.00 0.00 0.00 58 1010.1
20260504080405 60 162 0.0 0.0 0.00 0.00 0.00 57 1010.1
20260504070405 61 182 0.9 7.0 0.00 0.00 0.00 54 1010.4
20260504050405 58 176 0.0 0.0 0.00 0.00 0.00 55 1011.4
20260504045905 58 173 0.0 0.0 0.00 0.00 0.00 55 1011.5
20260504045404 58 159 0.0 0.0 0.00 0.00 0.00 55 1011.5
20260504044906 58 180 0.0 0.0 0.00 0.00 0.00 55 1011.6
20260504044405 58 177 0.0 0.0 0.00 0.00 0.00 55 1011.7
20260504043905 58 155 0.0 0.0 0.00 0.00 0.00 55 1011.7
20260504043405 58 167 0.0 0.0 0.00 0.00 0.00 56 1011.7
20260504042905 58 148 0.0 0.0 0.00 0.00 0.00 56 1011.8
20260504042405 58 167 0.0 0.0 0.00 0.00 0.00 56 1011.8
20260504041405 58 142 0.0 0.0 0.00 0.00 0.00 56 1011.9
20260504040904 58 155 0.0 0.0 0.00 0.00 0.00 56 1012.1
20260504040405 58 168 0.0 0.0 0.00 0.00 0.00 56 1012.1
20260504035904 58 171 0.0 0.0 0.00 0.00 0.00 56 1012.1
20260504035405 58 189 0.0 0.0 0.00 0.00 0.00 56 1012.1
20260504034905 58 191 0.0 0.0 0.00 0.00 0.00 55 1012.2
20260504034404 58 148 0.0 0.0 0.00 0.00 0.00 55 1012.2
20260504033905 58 173 0.0 0.0 0.00 0.00 0.00 55 1012.2
20260504033404 59 199 0.0 0.0 0.00 0.00 0.00 55 1012.2
20260504032905 59 179 0.0 0.0 0.00 0.00 0.00 54 1012.4
20260504032405 59 166 0.0 0.0 0.00 0.00 0.00 54 1012.4
20260504031905 59 157 0.0 0.0 0.00 0.00 0.00 53 1012.5
20260504031404 60 174 0.0 0.0 0.00 0.00 0.00 53 1012.6
20260504030905 60 137 0.0 0.0 0.00 0.00 0.00 53 1012.6
20260504030405 60 193 0.0 0.0 0.00 0.00 0.00 52 1012.7
20260504025905 60 140 0.0 0.0 0.00 0.00 0.00 52 1012.7
20260504024905 60 196 0.0 0.0 0.00 0.00 0.00 52 1012.7
20260504024405 60 196 0.0 0.0 0.00 0.00 0.00 51 1012.7
20260504023905 60 173 0.0 0.0 0.00 0.00 0.00 51 1012.7
20260504023404 60 182 0.0 0.0 0.00 0.00 0.00 51 1012.6
20260504022905 60 182 0.0 0.0 0.00 0.00 0.00 51 1012.6
20260504022405 60 184 0.0 0.0 0.00 0.00 0.00 51 1012.7
20260504021904 61 184 0.0 0.0 0.00 0.00 0.00 51 1012.7
20260504021404 61 199 0.0 0.0 0.00 0.00 0.00 51 1012.7
20260504020905 61 202 0.0 0.0 0.00 0.00 0.00 51 1012.8
20260504020405 61 161 0.0 0.0 0.00 0.00 0.00 50 1012.8
20260504015904 61 168 0.0 0.0 0.00 0.00 0.00 49 1012.7
20260504014905 62 169 0.0 0.0 0.00 0.00 0.00 48 1012.7
20260504014404 62 170 0.0 0.0 0.00 0.00 0.00 48 1012.7
20260504013905 62 175 0.0 0.0 0.00 0.00 0.00 49 1012.7
20260504013405 62 167 0.0 0.0 0.00 0.00 0.00 48 1012.6
20260504012905 62 169 0.0 0.0 0.00 0.00 0.00 47 1012.8
20260504012405 62 172 0.0 0.0 0.00 0.00 0.00 47 1012.8
20260504011905 62 172 0.0 0.0 0.00 0.00 0.00 47 1012.8
20260504011404 63 172 0.0 0.0 0.00 0.00 0.00 46 1012.9
20260504010905 63 172 0.0 0.0 0.00 0.00 0.00 45 1013.0
20260504010405 63 175 0.0 0.0 0.00 0.00 0.00 45 1013.0
20260504005904 63 155 0.0 0.0 0.00 0.00 0.00 44 1013.0
20260504005405 64 155 0.0 0.0 0.00 0.00 0.00 44 1012.8
20260504004904 64 158 0.0 0.0 0.00 0.00 0.00 44 1012.9
20260504003904 65 179 0.0 0.0 0.00 0.00 0.00 43 1012.8
20260504003405 65 197 0.0 0.0 0.00 0.00 0.00 42 1012.6
20260504002404 66 227 0.0 0.0 0.00 0.00 0.00 41 1012.7
20260504001905 66 202 0.0 0.9 0.00 0.00 0.00 40 1012.6
20260504000905 67 171 0.0 5.2 0.00 0.00 0.00 39 1012.6
20260504000405 68 160 0.0 6.1 0.00 0.00 0.00 39 1012.6
20260503235904 68 179 0.0 0.9 0.00 0.00 0.00 38 1012.6
20260503235405 69 155 0.0 0.9 0.00 0.00 0.00 37 1012.5
20260503234404 69 189 0.0 0.9 0.00 0.00 0.00 37 1012.4
20260503233904 69 256 2.6 8.7 0.00 0.00 0.00 36 1012.3
20260503232404 70 140 0.0 7.8 0.00 0.00 0.00 36 1012.5
20260503231905 70 162 3.5 11.3 0.00 0.00 0.00 36 1012.5
20260503231405 70 184 5.2 13.9 0.00 0.00 0.00 35 1012.4
20260503230904 70 273 4.3 10.4 0.00 0.00 0.00 35 1012.5
20260503230404 70 225 0.0 6.1 0.00 0.00 0.00 36 1012.6
20260503225904 70 182 1.7 10.4 0.00 0.00 0.00 35 1012.7
20260503225405 70 171 2.6 8.7 0.00 0.00 0.00 35 1012.8
20260503224905 70 157 6.1 13.9 0.00 0.00 0.00 35 1012.9
20260503224405 70 175 2.6 13.0 0.00 0.00 0.00 35 1013.1
20260503223905 71 183 5.2 15.6 0.00 0.00 0.00 35 1013.1
20260503223405 71 183 5.2 10.4 0.00 0.00 0.00 37 1013.1
20260503222905 70 191 2.6 12.2 0.00 0.00 0.00 36 1013.1
20260503222404 71 173 6.1 13.0 0.00 0.00 0.00 36 1013.3
20260503221405 71 188 5.2 12.2 0.00 0.00 0.00 37 1013.5
20260503220904 71 217 1.7 8.7 0.00 0.00 0.00 35 1013.5
20260503220404 71 267 1.7 11.3 0.00 0.00 0.00 36 1013.5
20260503214405 71 246 2.6 17.4 0.00 0.00 0.00 36 1014.0
20260503213904 71 263 4.3 13.0 0.00 0.00 0.00 36 1014.1
20260503213404 71 150 3.5 10.4 0.00 0.00 0.00 38 1014.2
20260503212904 70 215 4.3 13.0 0.00 0.00 0.00 36 1014.4
20260503212404 70 252 4.3 12.2 0.00 0.00 0.00 36 1014.5
20260503211904 70 155 7.0 15.6 0.00 0.00 0.00 36 1014.6
20260503211404 71 247 7.8 13.9 0.00 0.00 0.00 35 1014.7
20260503210906 70 278 0.9 7.0 0.00 0.00 0.00 37 1014.7
20260503210405 71 178 6.1 17.4 0.00 0.00 0.00 36 1014.8
20260503205904 70 185 5.2 11.3 0.00 0.00 0.00 38 1014.9
20260503205404 70 166 4.3 10.4 0.00 0.00 0.00 37 1015.2
20260503204904 70 143 1.7 10.4 0.00 0.00 0.00 38 1015.4
20260503204404 70 172 5.2 13.9 0.00 0.00 0.00 37 1015.5
20260503203404 70 159 5.2 11.3 0.00 0.00 0.00 37 1015.6
20260503202904 70 163 6.1 13.0 0.00 0.00 0.00 37 1015.8